Location: Clarks Summit,Pa.
(41.5000°N, 75.6000°W)
Time: 06:31:44
(UTC-05:00)

Envisat - Pass Details

Date: 02 December 2021
Orbit: 764 x 766 km, 98.2° (Epoch: 28 January)

Event Time Altitude Azimuth Distance (km) Brightness Sun altitude
Rises 03:29:39 0° 38° (NE) 3,240 6.7 -40.7°
Reaches altitude 10° 03:34:38 10° 80° (E) 2,305 6.2 -39.8°
Maximum altitude 03:35:15 10° 88° (E) 2,289 6.1 -39.7°
Drops below altitude 10° 03:35:53 10° 95° (E) 2,303 6.1 -39.5°
Sets 03:40:48 0° 137° (SE) 3,219 6.7 -38.6°
